| time (UTC) | temp F | wind direction | speed MPH | gust MPH | rain 1hr in | rain 24hr in | rain mn in | humidity % | barometer mb |
| 20260504043034 | 63 | 134 | 3.0 | 7.0 | 0.00 | 0.00 | 0.00 | 55 | 1012.7 |
| 20260504041536 | 66 | 172 | 2.0 | 4.0 | 0.00 | 0.00 | 0.00 | 51 | 1012.3 |
| 20260504040045 | 65 | 190 | 2.0 | 3.0 | 0.00 | 0.00 | 0.00 | 53 | 1012.1 |
| 20260504034536 | 64 | 185 | 2.0 | 4.0 | 0.00 | 0.00 | 0.00 | 55 | 1012.0 |
| 20260504033037 | 64 | 158 | 2.0 | 10.0 | 0.00 | 0.00 | 0.00 | 56 | 1011.8 |
| 20260504031606 | 66 | 193 | 0.0 | 2.0 | 0.00 | 0.00 | 0.00 | 53 | 1011.7 |
| 20260504030031 | 71 | 181 | 0.0 | 3.0 | 0.00 | 0.00 | 0.00 | 44 | 1011.4 |
| 20260504023144 | 78 | 292 | 4.0 | 8.0 | 0.00 | 0.00 | 0.00 | 35 | 1011.3 |
| 20260504020036 | 82 | 328 | 4.0 | 11.0 | 0.00 | 0.00 | 0.00 | 30 | 1011.5 |
| 20260504014534 | 82 | 335 | 4.0 | 11.0 | 0.00 | 0.00 | 0.00 | 29 | 1011.6 |
| 20260504013034 | 83 | 324 | 4.0 | 7.0 | 0.00 | 0.00 | 0.00 | 28 | 1011.8 |
| 20260504011537 | 84 | 318 | 8.0 | 19.0 | 0.00 | 0.00 | 0.00 | 28 | 1011.9 |
| 20260504010034 | 84 | 313 | 7.0 | 20.0 | 0.00 | 0.00 | 0.00 | 27 | 1012.0 |
| 20260504004535 | 87 | 318 | 7.0 | 21.0 | 0.00 | 0.00 | 0.00 | 25 | 1012.2 |
| 20260504001531 | 86 | 331 | 5.0 | 13.0 | 0.00 | 0.00 | 0.00 | 26 | 1012.4 |
| 20260504000036 | 86 | 354 | 6.0 | 14.0 | 0.00 | 0.00 | 0.00 | 25 | 1012.5 |
| 20260503234535 | 86 | 344 | 7.0 | 16.0 | 0.00 | 0.00 | 0.00 | 25 | 1012.7 |
| 20260503231535 | 85 | 350 | 6.0 | 16.0 | 0.00 | 0.00 | 0.00 | 24 | 1013.0 |
| 20260503230035 | 85 | 356 | 6.0 | 21.0 | 0.00 | 0.00 | 0.00 | 24 | 1013.3 |
| 20260503224536 | 85 | 33 | 4.0 | 12.0 | 0.00 | 0.00 | 0.00 | 24 | 1013.6 |
| 20260503223037 | 86 | 344 | 6.0 | 12.0 | 0.00 | 0.00 | 0.00 | 25 | 1013.8 |
| 20260503221534 | 85 | 2 | 4.0 | 16.0 | 0.00 | 0.00 | 0.00 | 26 | 1014.1 |
| 20260503220034 | 85 | 336 | 7.0 | 14.0 | 0.00 | 0.00 | 0.00 | 26 | 1014.2 |
| 20260503214530 | 85 | 1 | 5.0 | 16.0 | 0.00 | 0.00 | 0.00 | 25 | 1014.4 |
| 20260503213029 | 85 | 18 | 4.0 | 11.0 | 0.00 | 0.00 | 0.00 | 27 | 1014.6 |
| 20260503211534 | 84 | 2 | 6.0 | 20.0 | 0.00 | 0.00 | 0.00 | 27 | 1014.8 |
| 20260503210111 | 86 | 45 | 3.0 | 12.0 | 0.00 | 0.00 | 0.00 | 27 | 1015.2 |
| 20260503203033 | 85 | 316 | 2.0 | 9.0 | 0.00 | 0.00 | 0.00 | 27 | 1015.3 |
| 20260503201531 | 84 | 65 | 4.0 | 11.0 | 0.00 | 0.00 | 0.00 | 31 | 1015.3 |
| 20260503194532 | 81 | 327 | 10.0 | 21.0 | 0.00 | 0.00 | 0.00 | 36 | 1015.7 |
| 20260503193033 | 80 | 331 | 8.0 | 21.0 | 0.00 | 0.00 | 0.00 | 38 | 1015.9 |
| 20260503191535 | 79 | 352 | 8.0 | 18.0 | 0.00 | 0.00 | 0.00 | 38 | 1016.0 |
| 20260503190029 | 78 | 342 | 7.0 | 13.0 | 0.00 | 0.00 | 0.00 | 39 | 1016.2 |
| 20260503183153 | 76 | 342 | 8.0 | 21.0 | 0.00 | 0.00 | 0.00 | 41 | 1016.4 |
| 20260503181535 | 75 | 340 | 7.0 | 16.0 | 0.00 | 0.00 | 0.00 | 41 | 1016.6 |
| 20260503180036 | 74 | 338 | 9.0 | 18.0 | 0.00 | 0.00 | 0.00 | 44 | 1016.7 |
| 20260503174544 | 72 | 330 | 7.0 | 19.0 | 0.00 | 0.00 | 0.00 | 47 | 1016.9 |
| 20260503173037 | 70 | 342 | 4.0 | 11.0 | 0.00 | 0.00 | 0.00 | 53 | 1017.1 |
| 20260503171535 | 69 | 349 | 3.0 | 7.0 | 0.00 | 0.00 | 0.00 | 57 | 1017.2 |
| 20260503081532 | 51 | 121 | 3.0 | 4.0 | 0.00 | 0.00 | 0.00 | 87 | 1017.6 |
| 20260503080107 | 51 | 146 | 3.0 | 4.0 | 0.00 | 0.00 | 0.00 | 86 | 1017.6 |
| 20260503071535 | 54 | 156 | 3.0 | 4.0 | 0.00 | 0.00 | 0.00 | 84 | 1017.6 |